EW7157 Weather Reports


Display with metric or nautical units.
time (UTC)temp
F
wind
direction
speed
MPH
gust
MPH
rain 1hr
in
rain 24hr
in
rain mn
in
humidity
%
barometer
mb
20260901051329 70 67 0.0 0.0 0.00 0.01 0.00 93 1039.6
20260901045446 70 67 0.0 0.0 0.00 0.01 0.00 92 1039.7
20260901044528 70 67 0.0 0.0 0.00 0.01 0.00 93 1039.8
20260901043531 70 67 0.0 0.0 0.00 0.01 0.00 93 1040.2
20260901042628 70 67 0.0 0.0 0.00 0.01 0.00 93 1040.2
20260901042529 70 67 0.0 0.0 0.00 0.01 0.00 93 1040.2
20260901041529 70 67 0.0 0.0 0.00 0.02 0.00 93 1040.3
20260901040628 70 67 0.0 0.0 0.00 0.03 0.00 93 1040.4
20260901035714 69 67 0.0 0.0 0.00 0.03 0.03 93 1040.3
20260901034713 69 67 0.0 0.0 0.00 0.03 0.03 93 1040.4
20260901033714 69 67 0.0 0.0 0.00 0.03 0.03 93 1040.3
20260901032714 69 67 0.0 0.0 0.00 0.03 0.03 93 1040.4
20260901032613 69 67 0.0 0.0 0.00 0.03 0.03 93 1040.5
20260901030614 69 67 0.0 0.0 0.00 0.04 0.03 92 1040.7
20260901025616 69 67 0.0 0.0 0.00 0.04 0.03 91 1040.5
20260901024614 69 67 0.0 0.0 0.00 0.04 0.03 92 1040.5
20260901023612 69 67 0.0 0.0 0.00 0.21 0.03 91 1040.6
20260901022616 69 67 0.0 0.0 0.00 0.54 0.03 91 1040.7
20260901021712 69 67 0.0 0.0 0.00 0.57 0.03 90 1040.7
20260901020715 69 67 0.0 0.0 0.00 0.59 0.03 90 1040.6
20260901015715 69 67 0.0 0.0 0.00 0.59 0.03 90 1040.6
20260901013713 69 67 0.0 0.0 0.00 0.59 0.03 90 1040.6
20260901012716 69 67 0.0 0.0 0.00 0.59 0.03 88 1040.7
20260901010714 70 67 0.0 0.0 0.00 0.59 0.03 88 1040.5
20260901004716 70 67 0.0 0.0 0.00 0.59 0.03 88 1040.5
20260901003716 70 67 0.0 0.0 0.00 0.59 0.03 88 1040.5
20260901003615 70 67 0.0 0.0 0.00 0.59 0.03 88 1040.5
20260901002614 71 67 0.0 0.0 0.00 0.59 0.03 87 1040.3
20260901001714 71 67 0.0 0.0 0.00 0.59 0.03 86 1040.3
20260901001613 71 67 0.0 0.0 0.00 0.59 0.03 85 1040.3
20260901000613 71 67 0.0 0.0 0.00 0.59 0.03 86 1040.2
20260831235615 72 67 0.0 0.0 0.00 0.59 0.03 86 1040.0
20260831235513 72 67 0.0 0.0 0.00 0.59 0.03 85 1040.0
20260831234513 72 67 0.0 0.0 0.00 0.59 0.03 85 1040.1
20260831233514 73 67 0.0 0.0 0.00 0.59 0.03 86 1040.0
20260831230515 73 67 0.0 0.0 0.00 0.59 0.03 85 1040.3
20260831224516 74 67 0.0 0.0 0.00 0.59 0.03 85 1040.7
20260831223614 74 67 0.0 0.0 0.00 0.59 0.03 85 1040.7
20260831222614 74 67 0.0 0.0 0.00 0.59 0.03 83 1040.7
20260831221714 74 67 0.0 0.0 0.00 0.59 0.03 84 1040.7
20260831220616 75 67 0.0 0.0 0.00 0.59 0.03 84 1040.8
20260831215712 75 67 0.0 0.0 0.00 0.59 0.03 83 1041.0
20260831214714 75 67 0.0 0.0 0.00 0.59 0.03 84 1040.8
20260831214613 75 67 0.0 0.0 0.00 0.59 0.03 84 1040.8
20260831213614 75 67 0.0 0.0 0.00 0.59 0.03 84 1040.9
20260831212614 75 67 0.0 0.0 0.00 0.59 0.03 83 1040.9
20260831212515 75 67 0.0 0.0 0.00 0.59 0.03 83 1040.9
20260831211513 75 67 0.0 0.0 0.00 0.59 0.03 83 1041.1
20260831210515 75 67 0.0 0.0 0.00 0.59 0.03 83 1041.0
20260831204513 75 67 0.0 0.0 0.00 0.59 0.03 82 1041.2
20260831204415 75 67 0.0 0.0 0.00 0.59 0.03 82 1041.2
20260831203413 76 67 0.0 0.0 0.00 0.59 0.03 80 1041.1
20260831202413 77 67 0.0 0.0 0.00 0.59 0.03 78 1041.3
20260831201417 77 67 0.0 0.0 0.00 0.59 0.03 77 1041.4
20260831200313 77 67 0.0 0.0 0.00 0.59 0.03 76 1041.4
20260831195313 77 67 0.0 0.0 0.00 0.59 0.03 77 1041.4
20260831194315 77 67 0.0 0.0 0.00 0.59 0.03 76 1041.6
20260831193413 78 67 0.0 0.0 0.00 0.59 0.03 76 1041.7
20260831192414 78 67 0.0 0.0 0.00 0.59 0.03 75 1041.6
20260831192314 78 67 0.0 0.0 0.00 0.59 0.03 74 1041.6
20260831191314 78 67 0.0 0.0 0.00 0.59 0.03 74 1041.8
20260831190314 79 67 0.0 0.0 0.00 0.59 0.03 73 1041.7
20260831184314 80 67 0.0 0.0 0.00 0.59 0.03 71 1042.0
20260831183314 80 67 0.0 0.0 0.00 0.59 0.03 69 1042.1
20260831182313 80 67 0.0 0.0 0.00 0.59 0.03 69 1041.9
20260831182213 80 67 0.0 0.0 0.00 0.59 0.03 69 1041.9
20260831181214 80 67 0.0 0.0 0.00 0.59 0.03 72 1042.1
20260831180215 80 67 0.0 0.0 0.00 0.59 0.03 70 1042.0
20260831175213 81 67 0.0 0.0 0.00 0.59 0.03 69 1042.2
20260831175115 81 67 0.0 0.0 0.00 0.59 0.03 68 1042.3
20260831174117 81 67 0.0 0.0 0.00 0.59 0.03 63 1042.1
20260831173214 82 67 0.0 0.0 0.00 0.59 0.03 60 1042.1
20260831173112 82 67 0.0 0.0 0.00 0.59 0.03 60 1042.1
20260831173014 82 67 0.0 0.0 0.00 0.59 0.03 60 1042.2
20260831171112 81 138 0.0 0.0 0.00 0.59 0.03 63 1042.1
20260831170113 80 157 0.0 0.0 0.00 0.59 0.03 66 1042.1
20260831165113 80 157 0.0 0.0 0.00 0.59 0.03 64 1042.3
20260831164016 80 157 0.0 0.0 0.00 0.59 0.03 65 1042.4
20260831163013 79 202 0.0 0.0 0.00 0.59 0.03 69 1042.2
20260831162013 78 315 0.0 0.0 0.01 0.59 0.03 74 1042.4
20260831161014 77 360 0.0 0.0 0.01 0.59 0.03 76 1042.5
20260831160012 75 270 0.0 0.0 0.01 0.59 0.03 79 1042.5
20260831155015 74 270 0.0 0.0 0.01 0.59 0.03 83 1042.5
20260831154916 74 270 0.0 0.0 0.01 0.59 0.03 84 1042.5
20260831153015 73 270 0.0 0.0 0.01 0.59 0.03 92 1042.6
20260831152030 72 270 0.0 0.0 0.00 0.57 0.02 91 1042.6
20260831151115 72 225 0.0 0.0 0.00 0.57 0.02 91 1042.7
20260831145312 71 225 0.0 0.0 0.00 0.57 0.02 94 1042.8
20260831144312 71 225 0.0 0.0 0.00 0.57 0.02 95 1043.0
20260831143313 71 225 0.0 0.0 0.00 0.57 0.02 95 1043.0
20260831142313 71 225 0.0 0.0 0.00 0.57 0.02 94 1042.8
20260831140315 71 225 0.0 0.0 0.00 0.57 0.02 94 1042.8
20260831135412 70 157 0.0 0.0 0.00 0.57 0.02 95 1042.7
20260831135315 70 157 0.0 0.0 0.00 0.57 0.02 94 1042.6
20260831133316 70 157 0.0 0.0 0.00 0.57 0.02 95 1042.9
20260831132414 70 157 0.0 0.0 0.00 0.57 0.02 95 1042.8
20260831131514 70 157 0.0 0.0 0.00 0.57 0.02 94 1042.6
20260831130516 70 157 0.0 0.0 0.00 0.57 0.02 96 1042.9
20260831125614 70 135 0.0 0.0 0.00 0.57 0.02 96 1042.8
20260831124613 69 135 0.0 0.0 0.00 0.57 0.02 96 1042.9
20260831124517 69 135 0.0 0.0 0.00 0.57 0.02 96 1042.9
20260831123515 69 135 0.0 0.0 0.00 0.57 0.02 96 1042.8
20260831122515 69 135 0.0 0.0 0.00 0.57 0.02 95 1042.8
20260831122416 69 135 0.0 0.0 0.00 0.57 0.02 96 1042.7
20260831121513 68 135 0.0 0.0 0.00 0.57 0.02 96 1042.5
20260831120514 68 135 0.0 0.0 0.00 0.57 0.02 96 1042.5
20260831115514 67 135 0.0 0.0 0.00 0.57 0.02 96 1042.6
20260831114415 67 135 0.0 0.0 0.00 0.57 0.02 96 1042.4
20260831113414 67 135 0.0 0.0 0.00 0.57 0.02 96 1042.3
20260831112425 67 135 0.0 0.0 0.00 0.57 0.02 96 1042.3
20260831111413 67 135 0.0 0.0 0.00 0.57 0.02 96 1042.2
20260831110415 67 135 0.0 0.0 0.00 0.57 0.02 95 1042.0
20260831110314 67 135 0.0 0.0 0.00 0.57 0.02 96 1042.0
20260831110215 67 135 0.0 0.0 0.00 0.57 0.02 96 1041.9
20260831105215 67 135 0.0 0.0 0.00 0.57 0.02 96 1042.0
20260831104313 67 135 0.0 0.0 0.00 0.57 0.02 95 1042.2
20260831104214 67 135 0.0 0.0 0.00 0.57 0.02 96 1042.2
20260831103114 67 135 0.0 0.0 0.00 0.57 0.02 96 1041.9
20260831101214 67 135 0.0 0.0 0.00 0.57 0.02 96 1041.9
20260831100312 67 135 0.0 0.0 0.00 0.57 0.02 96 1041.7
20260831100216 67 135 0.0 0.0 0.00 0.57 0.02 96 1041.7
20260831100115 67 135 0.0 0.0 0.00 0.57 0.02 96 1041.6
20260831094312 67 135 0.0 0.0 0.00 0.57 0.02 96 1041.4
20260831093315 67 135 0.0 0.0 0.00 0.57 0.02 96 1041.3
20260831092315 68 135 0.0 0.0 0.00 0.57 0.02 96 1041.2
20260831091314 68 135 0.0 0.0 0.00 0.57 0.02 96 1041.2
20260831090313 68 135 0.0 0.0 0.00 0.57 0.02 95 1041.4
20260831085316 68 135 0.0 0.0 0.00 0.57 0.02 95 1041.4
20260831084412 68 135 0.0 0.0 0.00 0.57 0.02 95 1041.2
20260831083430 68 135 0.0 0.0 0.00 0.57 0.02 95 1041.3
20260831082515 69 135 0.0 0.0 0.00 0.57 0.02 95 1041.5
20260831081614 69 135 0.0 0.0 0.00 0.57 0.02 95 1041.4
20260831080614 69 135 0.0 0.0 0.00 0.57 0.02 95 1041.5
20260831075616 69 135 0.0 0.0 0.00 0.57 0.02 94 1041.4
20260831074612 69 135 0.0 0.0 0.00 0.57 0.02 95 1041.3
20260831072615 69 135 0.0 0.0 0.00 0.57 0.02 95 1041.2
20260831064613 69 135 0.0 0.0 0.00 0.57 0.02 95 1041.4
20260831063613 70 135 0.0 0.0 0.00 0.57 0.02 95 1041.4
20260831062614 69 135 0.0 0.0 0.00 0.57 0.02 95 1041.3
20260831061613 69 135 0.0 0.0 0.00 0.57 0.02 94 1041.3
20260831060614 70 135 0.0 0.0 0.00 0.57 0.02 95 1041.2
20260831060515 70 135 0.0 0.0 0.00 0.57 0.02 95 1041.2
20260831060414 70 135 0.0 0.0 0.00 0.57 0.02 95 1041.1
20260831055512 70 135 0.0 0.0 0.00 0.57 0.02 95 1041.1
20260831054514 70 135 0.0 0.0 0.00 0.57 0.02 94 1041.2
20260831054413 70 135 0.0 0.0 0.00 0.57 0.02 95 1041.2
20260831053415 70 135 0.0 0.0 0.00 0.57 0.02 95 1041.1
20260831052416 70 135 0.0 0.0 0.00 0.57 0.02 94 1041.3